Showing default

YUNYAO-1 47, 63348

Orbit data source: Space-Track

YUNYAO-1 47, 63348 is a payload satellite owned by Yunyao yuhang (CN) in SSO that was launched on Fri, 21 Mar 2025 UTC via a GUSHENXING 1 launch vehicle from the Jiuquan Satellite Launch Center, China (JSC). Payload-class satellites include a variety of spacecraft equipped with specific instruments for various scientific and technological missions. These include communications satellites like Starlink; space stations such as the ISS; scientific satellites like the Hubble; Earth observation satellites from companies like Planet Labs, Umbra, and HawkEye 360; GPS; miniature CubeSats for education and research; and military/defense satellites.

Loading next visibility...
Identifier
63348, 2025-059E
Orbit
SSO
Last TLE update
9 hours ago
Origin
Manufacturer
Changguang WJ
Mission
Operational spacecraft
Bus & Motor
YY-1, Unknown motor
Mass
~50 kg wet, ~50 kg dry
Launch date (UTC)
2025-03-21 (3 months ago)
Launch vehicle
GUSHENXING 1
Launch site
Jiuquan Satellite Launch Center, China (JSC)
Object type
Payload
Rocket body
Debris
Shape & HBR
Unknown
Radar Cross Section
Medium (>0.1 m² and <1 m²)

Expand to show TLE details & history

TLE from 9 hours ago
0 YUNYAO-1 47
1 63348U 25059E   25181.86273560  .00002011  00000-0  13456-3 0  9995
2 63348  97.5988   1.1269 0015632 282.2341  77.7137 15.07990668 15290
Epoch: 2025-06-30T20:42Z
TLE epoch observation values (Epoch: 2025-06-30T20:42:20.355Z)
Latitude
0.00002°
Longitude
131.37564°
Altitude
543.123 km
Speed
7.592 km/s
True Right ascension
00h 04m 30s
True Declination
0° 00' 00"
Sunlit
Object was in daylight at epoch
Visualization orbit readout
Latitude
-40.32231°
Longitude
138.22743°
Altitude
549.362 km
Speed
7.591 km/s
Apparent Right ascension
03h 00m 12s
Apparent Declination
-47° 03' 42"
Sunlit
Object is in daylight
Visualization observer readout
Local Sidereal Time
17:42:37
Azimuth
117.382° SE
Elevation
-60.048°
Doppler factor
1
Orbital elements
Apogee altitude
550.144 km
Perigee altitude
528.517 km
Semi-major axis
6,917.468 km
Eccentricity
0.00156
Inclination
97.5988°
RAAN
1.1269°
Arg. of periapsis
282.2341°
True anomaly
Unknown
Mean anomaly
77.7137°
Eccentric anomaly
Unknown
Mean motion
3.77244 °/min
Orbital period
95.43 mins
BSTAR
0.00013456
Loading maneuver chart data...
Loading SW <> Apogee altitude chart data...
Loading historical data...
Loading historical data...
Loading historical data...
Loading historical data...
Loading historical data...
Loading historical data...
Loading historical data...
Other satellites on launch #59 in the year 2025 (2025-03-21 UTC)

YUNYAO-1 47 Visibility forecast

Observer location: undefined°, undefined°

Span
Click to sort rows by Start time (UTC) header in descending order
Start Az.
Max El. time (UTC)
Max El. Az.
Max El.
End time (UTC)
End Az.
5 mins2025-07-01 11:10:53.283Z118.948° SE2025-07-01 11:13:53.283Z64.799° ENE21.094°2025-07-01 11:15:53.283Z26.823° NE
4 mins2025-07-01 12:46:53.283Z234.978° WSW2025-07-01 12:47:53.283Z257.513° W22.158°2025-07-01 12:50:53.283Z315.157° NNW
5 mins2025-07-02 00:21:53.283Z41.618° NE2025-07-02 00:23:53.283Z89.967° E30.909°2025-07-02 00:26:53.283Z160.544° S
|